Jonesboro, AR

3:13 AM CST on February 28, 2017 (GMT -0600)
Jonesboro Municipal

Weather History for KJBR - January, 2013

Change the Weather History Date:

Saturday, January 19, 2013

  Actual Average Record
Temperature  
Mean Temperature 47 °F 37 °F  
Max Temperature 57 °F 46 °F 72 °F (1914)
Min Temperature 37 °F 29 °F -5 °F (1940)
Degree Days  
Heating Degree Days 18 28  
Month to date heating degree days 477 532  
Since 1 July heating degree days 1739 1974  
Cooling Degree Days 0 0  
Month to date cooling degree days 0 0  
Year to date cooling degree days 0 0  
Moisture  
Dew Point 35 °F    
Average Humidity 64    
Maximum Humidity 76    
Minimum Humidity 51    
Precipitation  
Precipitation 0.00 in 0.10 in 2.15 in (1898)
Month to date precipitation 3.77 2.08  
Year to date precipitation 3.77 2.08  
Snow  
Snow 0.00 in - - ()
Month to date snowfall 0.5  
Snow Depth 0.00 in    
Sea Level Pressure  
Sea Level Pressure 30.22 in    
Wind  
Wind Speed 13 mph (SW)    
Max Wind Speed 25 mph    
Max Gust Speed 30 mph    
Visibility 10 miles    
Events      
T = Trace of Precipitation, MM = Missing Value Source: NWS Daily Summary

Daily Weather History Graph

Daily Weather History Graph

Search for Another Location

Airport or City:

Trip Planner

Search our weather history database for the weather conditions in past years. The results will help you decide how hot, cold, wet, or windy it might be!

Date:

Astronomy

Jan. 19, 2013 Rise Set
Actual Time 7:10 AM CST 5:16 PM CST
Civil Twilight 6:42 AM CST 5:44 PM CST
Nautical Twilight 6:11 AM CST 6:15 PM CST
Astronomical Twilight 5:41 AM CST 6:46 PM CST
Moon 11:40 AM CST (1/19) 12:47 AM CST (1/19)
Length of Visible Light 11h 01m
Length of Day
10h 06m
First Quarter, 57% of the Moon is Illuminated
Jan 19
First Quarter
Jan 26
Full
Feb 3
Last Quarter
Feb 10
New
Feb 17
First Quarter

Hourly Weather History & Observations

Time (CST) Temp. Windchill Dew Point Humidity Pressure Visibility Wind Dir Wind Speed Gust Speed Precip Events Conditions
12:53 AM 39.9 °F 33.4 °F 30.0 °F 68% 30.31 in 10.0 mi SW 10.4 mph - N/A   Clear
1:53 AM 39.9 °F 32.9 °F 30.9 °F 70% 30.31 in 10.0 mi SSW 11.5 mph - N/A   Clear
2:53 AM 39.0 °F 32.3 °F 30.9 °F 73% 30.31 in 10.0 mi SW 10.4 mph - N/A   Clear
3:53 AM 37.9 °F 30.9 °F 30.0 °F 73% 30.29 in 10.0 mi SSW 10.4 mph - N/A   Clear
4:53 AM 37.9 °F 30.5 °F 30.0 °F 73% 30.27 in 10.0 mi SSW 11.5 mph - N/A   Clear
5:53 AM 37.9 °F 30.0 °F 30.0 °F 73% 30.28 in 10.0 mi SSW 12.7 mph - N/A   Clear
6:53 AM 37.9 °F 30.9 °F 30.0 °F 73% 30.28 in 10.0 mi SSW 10.4 mph - N/A   Clear
7:53 AM 39.0 °F 32.3 °F 30.9 °F 73% 30.28 in 10.0 mi SSW 10.4 mph - N/A   Clear
8:53 AM 43.0 °F 36.8 °F 33.1 °F 68% 30.29 in 10.0 mi SSW 11.5 mph - N/A   Clear
9:53 AM 46.0 °F 39.9 °F 34.0 °F 63% 30.29 in 10.0 mi SSW 13.8 mph 21.9 mph N/A   Clear
10:53 AM 48.9 °F - 34.0 °F 56% 30.27 in 10.0 mi SSW 15.0 mph - N/A   Clear
11:53 AM 51.1 °F - 36.0 °F 56% 30.22 in 10.0 mi SSW 16.1 mph 21.9 mph N/A   Clear
12:53 PM 54.0 °F - 39.0 °F 57% 30.18 in 10.0 mi SW 17.3 mph 23.0 mph N/A   Clear
1:53 PM 55.9 °F - 39.0 °F 53% 30.17 in 10.0 mi SSW 16.1 mph 28.8 mph N/A   Clear
2:53 PM 57.0 °F - 39.0 °F 51% 30.14 in 10.0 mi SSW 18.4 mph 26.5 mph N/A   Clear
3:53 PM 55.9 °F - 39.0 °F 53% 30.14 in 10.0 mi SSW 24.2 mph 29.9 mph N/A   Clear
4:53 PM 54.0 °F - 39.0 °F 57% 30.14 in 10.0 mi SSW 15.0 mph - N/A   Clear
5:53 PM 51.1 °F - 37.9 °F 61% 30.15 in 10.0 mi SSW 10.4 mph - N/A   Clear
6:53 PM 48.9 °F - 37.9 °F 66% 30.15 in 10.0 mi SSW 10.4 mph - N/A   Clear
7:53 PM 48.0 °F - 37.0 °F 66% 30.17 in 10.0 mi SSW 11.5 mph - N/A   Clear
8:53 PM 45.0 °F 40.6 °F 36.0 °F 71% 30.18 in 10.0 mi SSW 8.1 mph - N/A   Clear
9:53 PM 48.0 °F - 36.0 °F 63% 30.18 in 10.0 mi SW 12.7 mph - N/A   Clear
10:53 PM 46.0 °F 42.5 °F 36.0 °F 68% 30.19 in 10.0 mi WSW 6.9 mph - N/A   Clear
11:53 PM 45.0 °F 41.2 °F 35.1 °F 68% 30.18 in 10.0 mi West 6.9 mph - N/A   Clear